{"data":{"norad_id":68429,"intl_designator":"2026-067P","name":"TRANSPORTER-16 OBJECT P","alt_names":[],"object_type":"PAYLOAD","status":"ACTIVE","operator":null,"country":"TBD","launch_date":"2026-03-30","launch_site_code":"AFWTR","launch_vehicle":null,"mission":null,"orbit_class":"UNKNOWN","rcs_meters":null,"size_class":null,"mass_kg":null,"dimensions":null,"purposes":[],"wikipedia_slug":null,"has_3d_model":false,"image_url":null,"decayed_at":null,"tle_current":{"epoch":"2026-05-24T20:40:28.168032Z","epoch_age_seconds":80898,"freshness":"FRESH","line1":"1 68429U 26067P   26144.86143713  .00010948  00000+0  52807-3 0  9996","line2":"2 68429  97.4492 103.6725 0005017 101.8143 258.3654 15.18856851  8404","mean_motion":15.18856851,"eccentricity":0.0005017,"inclination_deg":97.4492,"raan_deg":103.6725,"arg_perigee_deg":101.8143,"mean_anomaly_deg":258.3654,"bstar":0.00052807,"rev_number":840,"period_min":94.808144628766,"perigee_km":505.8388506087,"apogee_km":512.74969914991,"semimajor_km":6887.4312748793,"source":"CELESTRAK","updated_at":"2026-05-25T13:38:07.814191Z"}}}